Weather History for Topeka Forbes, KS

Change the Weather History Date:

Friday, November 9, 2012

  Actual Average Record
Temperature  
Mean Temperature 62 °F -  
Max Temperature 77 °F 56 °F 77 °F (1999)
Min Temperature 46 °F 35 °F 20 °F (1962)
Degree Days  
Heating Degree Days 4    
Growing Degree Days 12 (Base 50)    
Moisture  
Dew Point 52 °F    
Average Humidity 66    
Maximum Humidity 83    
Minimum Humidity 50    
Precipitation  
Precipitation 0.00 in - - ()
Sea Level Pressure  
Sea Level Pressure 29.77 in    
Wind  
Wind Speed 13 mph (SSE)    
Max Wind Speed 20 mph    
Max Gust Speed 29 mph    
Visibility 10 miles    
Events      
Averages and records for this station are not official NWS values.
T = Trace of Precipitation, MM = Missing Value Source: NWS Daily Summary

Daily Weather History Graph

Daily Weather History Graph

Search for Another Location

Airport:

Trip Planner

Search our weather history database for the weather conditions in past years. The results will help you decide how hot, cold, wet, or windy it might be!

Date:

Astronomy

Nov. 09, 2012 Rise Set
Actual Time 6:59 AM CST 5:13 PM CST
Civil Twilight 6:31 AM CST 5:41 PM CST
Nautical Twilight 5:59 AM CST 6:13 PM CST
Astronomical Twilight 5:27 AM CST 6:44 PM CST
Moon 2:01 AM CST (11/9) 2:24 PM CST (11/9)
Length of Visible Light 11h 10m
Length of Day
10h 13m
Waning Crescent, 23% of the Moon is Illuminated
Nov 9
Waning Crescent
Nov 13
New
Nov 20
First Quarter
Nov 28
Full
Dec 6
Last Quarter

Hourly Weather History & Observations

Time (CST) Temp. Dew Point Humidity Pressure Visibility Wind Dir Wind Speed Gust Speed Precip Events Conditions
12:53 AM 57.0 °F 43.0 °F 59% 29.84 in 10.0 mi SSE 13.8 mph - N/A   Clear
1:53 AM 55.9 °F 42.1 °F 60% 29.83 in 10.0 mi SSE 12.7 mph - N/A   Clear
2:53 AM 54.0 °F 42.1 °F 64% 29.82 in 10.0 mi SE 11.5 mph - N/A   Clear
3:53 AM 54.0 °F 43.0 °F 66% 29.81 in 10.0 mi SSE 12.7 mph - N/A   Clear
4:53 AM 52.0 °F 43.0 °F 71% 29.83 in 10.0 mi ESE 8.1 mph - N/A   Clear
5:53 AM 50.0 °F 43.0 °F 77% 29.83 in 10.0 mi ESE 9.2 mph - N/A   Clear
6:53 AM 46.9 °F 42.1 °F 83% 29.83 in 10.0 mi ESE 6.9 mph - N/A   Clear
7:53 AM 50.0 °F 44.1 °F 80% 29.83 in 10.0 mi SE 8.1 mph - N/A   Clear
8:53 AM 55.9 °F 48.0 °F 75% 29.83 in 10.0 mi SSE 10.4 mph - N/A   Clear
9:53 AM 62.1 °F 51.1 °F 67% 29.81 in 10.0 mi South 15.0 mph - N/A   Clear
10:53 AM 69.1 °F 54.0 °F 58% 29.81 in 10.0 mi South 19.6 mph - N/A   Clear
11:53 AM 70.0 °F 55.0 °F 59% 29.78 in 10.0 mi South 13.8 mph - N/A   Clear
12:53 PM 73.9 °F 55.9 °F 53% 29.75 in 10.0 mi South 16.1 mph 28.8 mph N/A   Clear
1:53 PM 77.0 °F 57.0 °F 50% 29.72 in 10.0 mi South 19.6 mph 25.3 mph N/A   Clear
2:53 PM 75.9 °F 55.9 °F 50% 29.71 in 10.0 mi South 18.4 mph 27.6 mph N/A   Clear
3:53 PM 75.9 °F 57.9 °F 54% 29.70 in 10.0 mi SSE 15.0 mph - N/A   Clear
4:53 PM 73.0 °F 57.0 °F 57% 29.70 in 10.0 mi SSE 16.1 mph 23.0 mph N/A   Clear
5:53 PM 70.0 °F 57.9 °F 65% 29.73 in 10.0 mi SSE 13.8 mph 21.9 mph N/A   Clear
6:53 PM 68.0 °F 57.9 °F 70% 29.73 in 10.0 mi South 17.3 mph - N/A   Clear
7:53 PM 66.9 °F 57.9 °F 73% 29.73 in 10.0 mi South 17.3 mph - N/A   Clear
8:53 PM 66.9 °F 57.9 °F 73% 29.73 in 10.0 mi South 15.0 mph 25.3 mph N/A   Clear
9:53 PM 68.0 °F 57.9 °F 70% 29.73 in 10.0 mi South 15.0 mph 24.2 mph N/A   Clear
10:53 PM 66.9 °F 57.9 °F 73% 29.73 in 10.0 mi South 15.0 mph - N/A   Clear
11:53 PM 66.0 °F 57.0 °F 73% 29.73 in 10.0 mi South 16.1 mph 23.0 mph N/A   Clear